Simultaneous Nadir Overpasses (SNOs) Predictions

Prediction of SNOs between AQUA and NPP Satellite Orbit:

Table of predicted SNOs for the next 14.0 days since TLE Epoch: 6/29/2019
Index Date (AQUA) Time (AQUA) Lat,Lon (AQUA) SZA (AQUA ) Date (NPP) Time (NPP) Lat,Lon (NPP) SZA (NPP ) Distance(km) Time Diff (sec)
1 07/01/2019 14:05:22 -75.36, 25.86 104.45 07/01/2019 14:05:08 -75.36, 25.78 104.42 2.34 14
2 07/01/2019 14:54:25 76.43,-163.25 74.30 07/01/2019 14:55:29 76.42,-163.33 74.27 2.54 64
3 07/04/2019 05:32:38 74.51, -28.11 76.75 07/04/2019 05:31:35 74.50, -28.18 76.82 2.26 63
4 07/04/2019 06:21:40 -75.83, 143.09 104.77 07/04/2019 06:21:53 -75.82, 143.03 104.77 1.74 13
5 07/06/2019 21:48:56 75.04, 89.11 76.42 07/06/2019 21:48:20 75.03, 89.06 76.47 1.64 36
6 07/06/2019 22:38:00 -76.24, -99.76 104.98 07/06/2019 22:38:40 -76.24, -99.79 105.01 0.72 40
7 07/09/2019 14:05:14 75.55,-153.59 76.14 07/09/2019 14:05:05 75.55,-153.62 76.15 0.68 9
8 07/09/2019 14:54:20 -76.64, 17.45 105.15 07/09/2019 14:55:27 -76.64, 17.47 105.21 0.74 67
9 07/12/2019 05:32:30 -74.93, 152.94 102.79 07/12/2019 05:31:30 -74.94, 153.00 102.76 1.85 60




NCC Satellite Simultaneous Nadir Overpasses (SNOs) Prediction Service
